QPF
0.02 0.02 0.02 0.02 0.02 0.02 0.03 0.02 0.01 0.00 0.00 0.00 0.00 0.00 0.00 0.00 0.00 0.00 0.00 0.01 0.01 0.01 0.02 0.03 0.03 0.02 0.02 0.01 0.02 0.02 0.02 0.02 0.01 0.01 0.02 0.01 0.01 0.01 0.01 0.02 0.03 0.03 0.03 0.04
0.01 0.01 0.01 0.02 0.01 0.01 0.01 0.01 0.01 0.00 0.00 0.00 0.00 0.00 0.00 0.00 0.00 0.00 0.00 0.00 0.01 0.01 0.02 0.03 0.02 0.02 0.02 0.01 0.01 0.02 0.02 0.02 0.02 0.02 0.02 0.01 0.01 0.01 0.02 0.02 0.04 0.04 0.04 0.06
0.02 0.01 0.01 0.01 0.01 0.01 0.01 0.01 0.01 0.01 0.01 0.00 0.00 0.01 0.00 0.00 0.00 0.00 0.00 0.00 0.00 0.01 0.02 0.02 0.02 0.02 0.02 0.01 0.01 0.02 0.02 0.02 0.02 0.02 0.02 0.02 0.02 0.02 0.03 0.04 0.04 0.05 0.05 0.07
0.03 0.03 0.03 0.01 0.00 0.01 0.01 0.01 0.01 0.01 0.01 0.01 0.01 0.01 0.01 0.01 0.00 0.00 0.00 0.00 0.00 0.01 0.01 0.02 0.02 0.02 0.02 0.02 0.02 0.02 0.02 0.02 0.02 0.02 0.03 0.04 0.04 0.04 0.04 0.05 0.04 0.04 0.04 0.06
0.04 0.03 0.02 0.01 0.00 0.00 0.01 0.02 0.01 0.01 0.01 0.01 0.01 0.01 0.01 0.01 0.00 0.00 0.00 0.00 0.00 0.00 0.01 0.01 0.02 0.02 0.02 0.02 0.02 0.01 0.02 0.03 0.03 0.03 0.04 0.05 0.05 0.04 0.04 0.04 0.04 0.03 0.03 0.04
0.06 0.04 0.02 0.01 0.00 0.00 0.01 0.03 0.02 0.01 0.02 0.02 0.02 0.01 0.01 0.00 0.00 0.00 0.00 0.00 0.00 0.00 0.00 0.00 0.01 0.01 0.01 0.01 0.01 0.01 0.02 0.03 0.03 0.03 0.04 0.04 0.05 0.05 0.04 0.04 0.05 0.05 0.04 0.04
0.05 0.03 0.02 0.01 0.01 0.01 0.02 0.03 0.01 0.01 0.01 0.01 0.01 0.01 0.00 0.00 0.00 0.00 0.00 0.00 0.00 0.00 0.00 0.00 0.00 0.00 0.01 0.01 0.01 0.01 0.01 0.02 0.02 0.02 0.03 0.03 0.04 0.04 0.03 0.04 0.05 0.05 0.06 0.05
0.03 0.03 0.02 0.01 0.01 0.01 0.02 0.01 0.01 0.01 0.01 0.01 0.00 0.00 0.00 0.00 0.00 0.00 0.00 0.00 0.00 0.00 0.00 0.00 0.00 0.00 0.00 0.00 0.00 0.01 0.01 0.01 0.01 0.02 0.02 0.02 0.02 0.03 0.03 0.03 0.04 0.04 0.04 0.05
0.02 0.02 0.02 0.01 0.01 0.01 0.01 0.01 0.01 0.01 0.01 0.01 0.01 0.01 0.00 0.00 0.00 0.00 0.00 0.00 0.00 0.00 0.00 0.00 0.00 0.00 0.00 0.00 0.00 0.01 0.01 0.01 0.01 0.01 0.01 0.02 0.02 0.02 0.03 0.03 0.03 0.04 0.03 0.04
0.02 0.02 0.02 0.02 0.02 0.01 0.01 0.01 0.01 0.01 0.01 0.01 0.01 0.01 0.01 0.00 0.00 0.00 0.00 0.00 0.00 0.00 0.00 0.00 0.00 0.00 0.00 0.00 0.01 0.01 0.01 0.01 0.02 0.02 0.02 0.02 0.02 0.02 0.02 0.02 0.03 0.03 0.04 0.04
0.02 0.02 0.02 0.02 0.02 0.02 0.01 0.01 0.01 0.01 0.01 0.01 0.01 0.01 0.01 0.01 0.01 0.00 0.00 0.00 0.00 0.00 0.00 0.00 0.00 0.00 0.00 0.01 0.01 0.01 0.01 0.01 0.02 0.02 0.02 0.02 0.02 0.02 0.02 0.03 0.03 0.04 0.04 0.04
0.02 0.01 0.02 0.01 0.01 0.01 0.01 0.01 0.01 0.01 0.01 0.01 0.01 0.01 0.01 0.01 0.01 0.01 0.01 0.00 0.00 0.00 0.00 0.00 0.00 0.00 0.01 0.01 0.01 0.01 0.01 0.01 0.01 0.02 0.02 0.02 0.02 0.02 0.03 0.04 0.04 0.04 0.04 0.05
0.01 0.01 0.01 0.00 0.00 0.01 0.01 0.01 0.01 0.01 0.01 0.01 0.00 0.00 0.01 0.01 0.01 0.01 0.01 0.01 0.01 0.01 0.00 0.00 0.00 0.01 0.01 0.01 0.01 0.01 0.01 0.01 0.01 0.02 0.02 0.02 0.02 0.02 0.03 0.03 0.03 0.04 0.04 0.04
0.00 0.00 0.01 0.00 0.01 0.01 0.01 0.01 0.00 0.00 0.00 0.00 0.00 0.00 0.00 0.01 0.01 0.01 0.01 0.01 0.01 0.01 0.01 0.00 0.01 0.01 0.01 0.01 0.01 0.01 0.02 0.02 0.02 0.02 0.01 0.02 0.02 0.02 0.03 0.03 0.02 0.03 0.04 0.04
0.01 0.01 0.01 0.01 0.00 0.00 0.00 0.00 0.00 0.00 0.00 0.00 0.00 0.00 0.00 0.01 0.01 0.01 0.01 0.01 0.01 0.01 0.01 0.01 0.01 0.01 0.01 0.02 0.02 0.02 0.02 0.02 0.02 0.02 0.01 0.01 0.02 0.02 0.02 0.03 0.03 0.03 0.03 0.03
0.01 0.01 0.01 0.01 0.00 0.00 0.00 0.00 0.00 0.00 0.00 0.00 0.00 0.00 0.01 0.01 0.01 0.01 0.01 0.02 0.02 0.02 0.02 0.02 0.01 0.02 0.02 0.02 0.01 0.02 0.02 0.02 0.02 0.02 0.01 0.01 0.02 0.02 0.02 0.03 0.03 0.03 0.03 0.04
0.02 0.02 0.01 0.01 0.01 0.00 0.00 0.01 0.01 0.01 0.01 0.01 0.01 0.01 0.01 0.00 0.01 0.01 0.02 0.02 0.02 0.02 0.02 0.02 0.02 0.02 0.02 0.02 0.02 0.02 0.02 0.02 0.02 0.01 0.01 0.01 0.02 0.02 0.02 0.02 0.02 0.03 0.03 0.04
0.01 0.01 0.01 0.01 0.01 0.01 0.01 0.01 0.01 0.01 0.01 0.01 0.01 0.01 0.01 0.01 0.01 0.01 0.02 0.02 0.03 0.02 0.02 0.02 0.02 0.02 0.02 0.02 0.02 0.02 0.02 0.02 0.02 0.02 0.02 0.02 0.02 0.02 0.03 0.02 0.02 0.03 0.03 0.04
0.01 0.01 0.01 0.01 0.01 0.01 0.01 0.01 0.01 0.01 0.01 0.01 0.01 0.01 0.01 0.01 0.01 0.02 0.02 0.03 0.03 0.02 0.02 0.03 0.03 0.03 0.02 0.03 0.03 0.03 0.03 0.03 0.02 0.02 0.02 0.02 0.03 0.03 0.03 0.03 0.02 0.03 0.04 0.04
0.00 0.00 0.01 0.01 0.01 0.01 0.01 0.01 0.01 0.01 0.01 0.01 0.01 0.01 0.01 0.01 0.01 0.02 0.03 0.03 0.03 0.03 0.03 0.03 0.03 0.03 0.03 0.03 0.03 0.03 0.03 0.03 0.03 0.03 0.03 0.02 0.03 0.03 0.03 0.03 0.03 0.04 0.03 0.03
0.00 0.00 0.00 0.01 0.01 0.01 0.01 0.01 0.01 0.01 0.01 0.01 0.01 0.01 0.01 0.01 0.02 0.03 0.03 0.03 0.03 0.03 0.03 0.03 0.03 0.04 0.04 0.04 0.04 0.04 0.03 0.03 0.03 0.03 0.03 0.03 0.03 0.03 0.03 0.03 0.04 0.05 0.04 0.04
0.00 0.00 0.01 0.01 0.01 0.01 0.01 0.01 0.01 0.01 0.01 0.01 0.01 0.01 0.02 0.02 0.03 0.03 0.04 0.04 0.03 0.04 0.04 0.04 0.04 0.04 0.05 0.05 0.04 0.04 0.04 0.03 0.03 0.03 0.04 0.04 0.04 0.04 0.03 0.03 0.04 0.05 0.04 0.04
0.00 0.00 0.00 0.01 0.01 0.01 0.01 0.01 0.01 0.01 0.01 0.02 0.02 0.03 0.03 0.03 0.03 0.04 0.03 0.03 0.04 0.04 0.04 0.04 0.05 0.05 0.05 0.05 0.04 0.04 0.03 0.03 0.03 0.03 0.04 0.04 0.04 0.04 0.04 0.04 0.05 0.04 0.04 0.04
0.00 0.00 0.00 0.00 0.00 0.00 0.01 0.01 0.02 0.02 0.02 0.03 0.03 0.03 0.04 0.03 0.03 0.04 0.03 0.03 0.03 0.03 0.03 0.04 0.04 0.04 0.04 0.04 0.03 0.03 0.02 0.03 0.03 0.04 0.04 0.04 0.04 0.04 0.05 0.05 0.05 0.04 0.04 0.04
0.00 0.00 0.00 0.00 0.00 0.00 0.00 0.00 0.01 0.01 0.01 0.02 0.02 0.03 0.03 0.03 0.04 0.04 0.03 0.03 0.03 0.02 0.02 0.03 0.03 0.03 0.03 0.02 0.02 0.02 0.02 0.03 0.03 0.04 0.04 0.04 0.05 0.05 0.05 0.05 0.05 0.05 0.04 0.05
0.00 0.00 0.00 0.00 0.01 0.01 0.00 0.00 0.01 0.01 0.01 0.01 0.01 0.01 0.02 0.02 0.03 0.03 0.03 0.03 0.03 0.02 0.02 0.02 0.03 0.03 0.02 0.02 0.02 0.02 0.02 0.03 0.03 0.03 0.03 0.03 0.04 0.04 0.04 0.04 0.04 0.04 0.04 0.04
0.00 0.00 0.00 0.00 0.00 0.00 0.01 0.01 0.01 0.01 0.01 0.01 0.01 0.01 0.01 0.02 0.02 0.02 0.03 0.03 0.03 0.03 0.03 0.03 0.03 0.02 0.02 0.02 0.02 0.02 0.02 0.03 0.03 0.03 0.03 0.03 0.03 0.03 0.03 0.03 0.03 0.03 0.04 0.04
MSLP
1011.49 1011.22 1010.90 1010.53 1010.10 1009.61 1009.08 1008.51 1007.94 1007.40 1006.91 1006.52 1006.22 1006.00 1005.87 1005.78 1005.70 1005.61 1005.47 1005.29 1005.08 1004.84 1004.63 1004.47 1004.40 1004.44 1004.61 1004.90 1005.29 1005.76 1006.29 1006.85 1007.41 1007.98 1008.54 1009.09 1009.65 1010.21 1010.76 1011.30 1011.81 1012.27 1012.64 1012.92
1012.40 1012.15 1011.84 1011.46 1011.02 1010.52 1009.99 1009.46 1008.95 1008.48 1008.08 1007.76 1007.51 1007.33 1007.19 1007.05 1006.89 1006.70 1006.44 1006.14 1005.80 1005.47 1005.16 1004.93 1004.81 1004.80 1004.93 1005.17 1005.52 1005.95 1006.42 1006.92 1007.42 1007.92 1008.41 1008.90 1009.40 1009.90 1010.40 1010.89 1011.36 1011.78 1012.13 1012.40
1013.00 1012.79 1012.50 1012.13 1011.70 1011.23 1010.75 1010.28 1009.85 1009.48 1009.17 1008.94 1008.76 1008.62 1008.49 1008.33 1008.12 1007.84 1007.50 1007.10 1006.67 1006.25 1005.87 1005.58 1005.40 1005.34 1005.42 1005.63 1005.93 1006.30 1006.72 1007.16 1007.60 1008.03 1008.46 1008.87 1009.29 1009.72 1010.14 1010.57 1010.97 1011.33 1011.64 1011.86
1013.21 1013.02 1012.76 1012.42 1012.04 1011.63 1011.22 1010.85 1010.52 1010.26 1010.07 1009.93 1009.84 1009.75 1009.64 1009.48 1009.25 1008.94 1008.54 1008.08 1007.59 1007.11 1006.68 1006.33 1006.10 1005.99 1006.02 1006.18 1006.42 1006.74 1007.10 1007.48 1007.86 1008.24 1008.59 1008.95 1009.29 1009.64 1009.98 1010.32 1010.64 1010.92 1011.16 1011.32
1013.01 1012.84 1012.61 1012.33 1012.01 1011.69 1011.39 1011.14 1010.94 1010.80 1010.72 1010.69 1010.67 1010.65 1010.58 1010.43 1010.20 1009.88 1009.46 1008.97 1008.45 1007.94 1007.47 1007.09 1006.82 1006.67 1006.64 1006.74 1006.92 1007.18 1007.49 1007.81 1008.14 1008.45 1008.76 1009.05 1009.33 1009.61 1009.87 1010.12 1010.35 1010.54 1010.69 1010.79
1012.47 1012.32 1012.13 1011.92 1011.71 1011.50 1011.33 1011.21 1011.14 1011.13 1011.17 1011.23 1011.29 1011.31 1011.28 1011.16 1010.94 1010.62 1010.20 1009.72 1009.20 1008.68 1008.21 1007.80 1007.49 1007.30 1007.22 1007.25 1007.38 1007.57 1007.81 1008.08 1008.35 1008.63 1008.89 1009.13 1009.36 1009.57 1009.76 1009.93 1010.07 1010.18 1010.24 1010.25
1011.73 1011.61 1011.48 1011.37 1011.27 1011.20 1011.18 1011.20 1011.27 1011.37 1011.50 1011.63 1011.74 1011.80 1011.79 1011.68 1011.47 1011.17 1010.77 1010.31 1009.82 1009.31 1008.84 1008.43 1008.11 1007.87 1007.74 1007.71 1007.76 1007.88 1008.06 1008.27 1008.49 1008.72 1008.95 1009.15 1009.34 1009.50 1009.63 1009.73 1009.79 1009.81 1009.79 1009.73
1010.95 1010.88 1010.84 1010.84 1010.88 1010.97 1011.09 1011.25 1011.44 1011.64 1011.84 1012.01 1012.14 1012.20 1012.18 1012.07 1011.87 1011.57 1011.20 1010.77 1010.31 1009.84 1009.40 1009.00 1008.66 1008.39 1008.21 1008.11 1008.09 1008.14 1008.24 1008.38 1008.56 1008.74 1008.93 1009.10 1009.25 1009.37 1009.45 1009.49 1009.48 1009.43 1009.34 1009.21
1010.31 1010.31 1010.38 1010.51 1010.70 1010.94 1011.20 1011.49 1011.77 1012.04 1012.27 1012.45 1012.56 1012.59 1012.54 1012.40 1012.18 1011.89 1011.54 1011.14 1010.72 1010.30 1009.88 1009.50 1009.16 1008.87 1008.64 1008.48 1008.39 1008.35 1008.38 1008.45 1008.56 1008.70 1008.84 1008.98 1009.09 1009.17 1009.21 1009.20 1009.14 1009.03 1008.88 1008.72
1009.95 1010.05 1010.23 1010.50 1010.82 1011.20 1011.58 1011.96 1012.31 1012.61 1012.84 1012.98 1013.04 1013.01 1012.90 1012.71 1012.46 1012.16 1011.82 1011.45 1011.07 1010.69 1010.31 1009.95 1009.62 1009.31 1009.05 1008.83 1008.66 1008.55 1008.49 1008.49 1008.53 1008.61 1008.70 1008.79 1008.87 1008.91 1008.91 1008.86 1008.75 1008.61 1008.43 1008.24
1009.97 1010.16 1010.46 1010.84 1011.28 1011.75 1012.22 1012.65 1013.02 1013.31 1013.50 1013.59 1013.57 1013.45 1013.26 1013.01 1012.71 1012.38 1012.04 1011.70 1011.35 1011.01 1010.67 1010.34 1010.01 1009.69 1009.40 1009.13 1008.90 1008.71 1008.58 1008.50 1008.46 1008.47 1008.51 1008.55 1008.59 1008.59 1008.55 1008.46 1008.33 1008.16 1007.97 1007.78
1010.39 1010.68 1011.05 1011.50 1012.01 1012.52 1013.02 1013.46 1013.81 1014.05 1014.17 1014.17 1014.06 1013.85 1013.57 1013.24 1012.89 1012.53 1012.18 1011.84 1011.52 1011.21 1010.90 1010.59 1010.28 1009.96 1009.64 1009.33 1009.05 1008.80 1008.60 1008.44 1008.35 1008.29 1008.27 1008.26 1008.24 1008.21 1008.14 1008.02 1007.87 1007.70 1007.51 1007.33
1011.18 1011.52 1011.92 1012.39 1012.89 1013.39 1013.86 1014.24 1014.53 1014.69 1014.73 1014.63 1014.42 1014.11 1013.75 1013.35 1012.94 1012.55 1012.18 1011.84 1011.53 1011.23 1010.95 1010.66 1010.35 1010.03 1009.70 1009.37 1009.06 1008.77 1008.51 1008.31 1008.15 1008.04 1007.97 1007.91 1007.85 1007.78 1007.68 1007.55 1007.39 1007.21 1007.03 1006.88
1012.26 1012.59 1012.97 1013.39 1013.82 1014.24 1014.60 1014.89 1015.08 1015.14 1015.07 1014.87 1014.56 1014.18 1013.74 1013.27 1012.81 1012.38 1011.99 1011.64 1011.33 1011.04 1010.76 1010.48 1010.18 1009.87 1009.54 1009.21 1008.88 1008.57 1008.29 1008.05 1007.86 1007.72 1007.60 1007.51 1007.42 1007.32 1007.19 1007.05 1006.88 1006.71 1006.56 1006.44
1013.51 1013.78 1014.07 1014.37 1014.67 1014.94 1015.17 1015.32 1015.37 1015.31 1015.14 1014.85 1014.46 1014.00 1013.50 1012.99 1012.49 1012.02 1011.60 1011.23 1010.90 1010.60 1010.32 1010.04 1009.76 1009.46 1009.14 1008.82 1008.50 1008.20 1007.92 1007.68 1007.49 1007.33 1007.19 1007.08 1006.96 1006.84 1006.70 1006.55 1006.39 1006.23 1006.10 1006.02
1014.81 1014.98 1015.12 1015.25 1015.37 1015.46 1015.50 1015.49 1015.40 1015.22 1014.94 1014.57 1014.12 1013.61 1013.07 1012.52 1011.98 1011.48 1011.03 1010.62 1010.27 1009.95 1009.66 1009.38 1009.10 1008.81 1008.52 1008.23 1007.94 1007.67 1007.43 1007.21 1007.03 1006.88 1006.75 1006.63 1006.51 1006.38 1006.23 1006.08 1005.92 1005.78 1005.67 1005.62
1016.05 1016.07 1016.03 1015.97 1015.87 1015.76 1015.62 1015.43 1015.20 1014.91 1014.54 1014.11 1013.61 1013.07 1012.49 1011.91 1011.35 1010.81 1010.32 1009.88 1009.49 1009.14 1008.83 1008.54 1008.27 1008.00 1007.74 1007.49 1007.26 1007.04 1006.85 1006.68 1006.54 1006.41 1006.30 1006.19 1006.08 1005.95 1005.80 1005.65 1005.50 1005.37 1005.28 1005.26
1017.12 1016.97 1016.75 1016.48 1016.18 1015.87 1015.55 1015.21 1014.85 1014.45 1014.02 1013.53 1013.00 1012.43 1011.84 1011.23 1010.64 1010.07 1009.54 1009.06 1008.62 1008.24 1007.90 1007.61 1007.34 1007.10 1006.88 1006.68 1006.51 1006.36 1006.23 1006.12 1006.02 1005.94 1005.86 1005.77 1005.67 1005.55 1005.41 1005.27 1005.13 1005.02 1004.95 1004.94
1017.94 1017.63 1017.23 1016.78 1016.30 1015.82 1015.34 1014.88 1014.42 1013.94 1013.45 1012.93 1012.37 1011.78 1011.16 1010.53 1009.90 1009.29 1008.72 1008.19 1007.71 1007.29 1006.93 1006.63 1006.37 1006.15 1005.98 1005.84 1005.72 1005.64 1005.58 1005.53 1005.49 1005.45 1005.41 1005.35 1005.27 1005.17 1005.05 1004.92 1004.80 1004.71 1004.66 1004.67
1018.48 1018.03 1017.48 1016.88 1016.26 1015.65 1015.06 1014.50 1013.96 1013.43 1012.89 1012.33 1011.74 1011.12 1010.47 1009.80 1009.13 1008.48 1007.85 1007.27 1006.75 1006.30 1005.92 1005.60 1005.36 1005.17 1005.04 1004.95 1004.90 1004.88 1004.88 1004.89 1004.91 1004.91 1004.91 1004.88 1004.83 1004.76 1004.67 1004.58 1004.49 1004.43 1004.41 1004.44
1018.73 1018.17 1017.51 1016.80 1016.09 1015.39 1014.73 1014.10 1013.50 1012.92 1012.33 1011.72 1011.09 1010.42 1009.72 1009.01 1008.28 1007.57 1006.89 1006.26 1005.70 1005.21 1004.82 1004.50 1004.27 1004.11 1004.02 1003.99 1004.00 1004.03 1004.09 1004.15 1004.21 1004.27 1004.30 1004.31 1004.30 1004.28 1004.24 1004.20 1004.16 1004.15 1004.18 1004.25
1018.73 1018.08 1017.35 1016.58 1015.81 1015.06 1014.35 1013.67 1013.02 1012.39 1011.74 1011.07 1010.38 1009.64 1008.87 1008.07 1007.28 1006.50 1005.75 1005.07 1004.47 1003.97 1003.56 1003.25 1003.04 1002.92 1002.87 1002.89 1002.95 1003.04 1003.14 1003.26 1003.37 1003.46 1003.54 1003.61 1003.66 1003.69 1003.72 1003.75 1003.80 1003.86 1003.96 1004.09
1018.54 1017.82 1017.05 1016.25 1015.45 1014.67 1013.93 1013.21 1012.50 1011.80 1011.08 1010.32 1009.53 1008.69 1007.82 1006.94 1006.05 1005.19 1004.38 1003.65 1003.02 1002.50 1002.09 1001.80 1001.62 1001.53 1001.53 1001.60 1001.71 1001.86 1002.01 1002.18 1002.34 1002.49 1002.63 1002.76 1002.88 1003.00 1003.12 1003.25 1003.39 1003.56 1003.74 1003.95
1018.21 1017.46 1016.66 1015.84 1015.03 1014.23 1013.45 1012.68 1011.91 1011.12 1010.29 1009.42 1008.51 1007.55 1006.56 1005.56 1004.57 1003.63 1002.75 1001.98 1001.32 1000.79 1000.39 1000.13 999.99 999.95 1000.00 1000.13 1000.30 1000.50 1000.72 1000.94 1001.16 1001.38 1001.59 1001.80 1002.02 1002.24 1002.47 1002.72 1002.98 1003.25 1003.54 1003.84
1017.82 1017.04 1016.23 1015.40 1014.58 1013.75 1012.92 1012.09 1011.22 1010.32 1009.37 1008.36 1007.30 1006.20 1005.07 1003.95 1002.86 1001.83 1000.90 1000.09 999.42 998.89 998.52 998.30 998.21 998.23 998.35 998.53 998.77 999.04 999.33 999.63 999.93 1000.23 1000.53 1000.84 1001.16 1001.49 1001.84 1002.21 1002.59 1002.98 1003.38 1003.76
1017.42 1016.62 1015.80 1014.96 1014.11 1013.24 1012.35 1011.42 1010.45 1009.42 1008.32 1007.16 1005.95 1004.70 1003.44 1002.20 1001.01 999.91 998.93 998.10 997.43 996.93 996.60 996.42 996.40 996.49 996.68 996.95 997.27 997.63 998.00 998.38 998.77 999.16 999.56 999.98 1000.40 1000.85 1001.32 1001.80 1002.29 1002.78 1003.26 1003.72
1017.03 1016.21 1015.37 1014.51 1013.62 1012.70 1011.73 1010.70 1009.60 1008.43 1007.19 1005.88 1004.52 1003.13 1001.76 1000.42 999.16 998.01 997.01 996.18 995.52 995.06 994.79 994.68 994.73 994.91 995.18 995.54 995.96 996.40 996.87 997.35 997.83 998.32 998.82 999.34 999.87 1000.41 1000.97 1001.54 1002.11 1002.67 1003.21 1003.71
Thickness
5436 5440 5443 5447 5451 5452 5453 5466 5473 5487 5488 5492 5491 5490 5487 5486 5486 5484 5484 5483 5483 5484 5486 5487 5487 5486 5485 5485 5484 5483 5483 5482 5482 5481 5481 5480 5479 5478 5478 5477 5475 5474 5473 5473
5421 5427 5432 5437 5448 5451 5453 5457 5460 5466 5472 5478 5475 5474 5473 5473 5471 5471 5470 5470 5470 5471 5472 5474 5474 5474 5473 5473 5472 5472 5472 5472 5471 5471 5471 5470 5469 5468 5468 5467 5466 5465 5464 5464
5420 5416 5419 5432 5443 5446 5449 5454 5457 5461 5467 5461 5460 5458 5458 5457 5456 5455 5455 5456 5456 5458 5459 5460 5460 5461 5462 5462 5461 5461 5461 5461 5461 5461 5460 5460 5459 5458 5458 5458 5457 5457 5456 5456
5403 5401 5409 5437 5434 5436 5439 5440 5442 5446 5447 5447 5447 5444 5442 5442 5443 5443 5443 5443 5444 5445 5445 5446 5447 5449 5450 5450 5450 5450 5451 5451 5451 5450 5450 5450 5449 5450 5450 5450 5449 5449 5449 5449
5394 5402 5415 5421 5419 5419 5422 5428 5430 5431 5432 5432 5430 5430 5432 5429 5429 5429 5429 5430 5431 5432 5432 5434 5436 5437 5438 5439 5439 5439 5440 5441 5440 5439 5440 5440 5440 5441 5441 5441 5442 5442 5442 5442
5383 5393 5405 5414 5410 5407 5412 5420 5421 5420 5420 5419 5419 5427 5425 5418 5416 5416 5416 5417 5417 5418 5420 5423 5425 5425 5427 5428 5429 5429 5429 5429 5429 5429 5430 5431 5431 5432 5432 5432 5433 5434 5434 5435
5375 5383 5398 5397 5395 5397 5405 5412 5409 5410 5409 5409 5412 5414 5410 5405 5404 5404 5405 5405 5405 5407 5409 5411 5412 5414 5416 5418 5418 5418 5418 5419 5420 5420 5421 5422 5422 5423 5423 5424 5425 5426 5427 5428
5368 5372 5384 5385 5383 5390 5395 5395 5397 5398 5397 5396 5396 5395 5394 5393 5393 5393 5393 5394 5394 5396 5398 5400 5401 5403 5405 5407 5407 5408 5409 5410 5411 5411 5412 5412 5414 5414 5415 5416 5417 5419 5421 5422
5366 5371 5372 5371 5374 5377 5380 5382 5385 5385 5384 5384 5383 5383 5382 5382 5383 5383 5383 5383 5384 5385 5388 5390 5391 5392 5395 5396 5397 5398 5399 5401 5402 5402 5403 5404 5405 5406 5407 5408 5409 5411 5413 5415
5352 5358 5360 5360 5362 5363 5366 5369 5371 5371 5371 5371 5371 5371 5371 5371 5372 5372 5372 5373 5374 5375 5378 5380 5380 5381 5383 5384 5386 5388 5390 5391 5393 5394 5395 5396 5397 5398 5399 5400 5401 5403 5404 5407
5345 5349 5351 5352 5351 5353 5354 5356 5357 5358 5359 5359 5359 5359 5359 5360 5360 5361 5362 5363 5364 5365 5367 5369 5370 5371 5372 5374 5376 5378 5381 5382 5384 5385 5387 5388 5389 5389 5391 5392 5392 5394 5396 5398
5343 5343 5344 5343 5342 5342 5343 5345 5345 5346 5346 5346 5347 5347 5348 5349 5349 5350 5351 5352 5353 5355 5357 5358 5360 5362 5363 5365 5366 5369 5371 5374 5375 5377 5378 5379 5381 5383 5383 5384 5385 5386 5388 5390
5327 5327 5329 5330 5330 5330 5332 5332 5332 5333 5334 5335 5335 5336 5337 5338 5338 5339 5341 5342 5344 5345 5347 5349 5351 5353 5355 5356 5358 5360 5363 5365 5367 5369 5370 5371 5372 5375 5377 5379 5379 5380 5382 5383
5314 5316 5319 5320 5320 5319 5319 5319 5320 5321 5322 5323 5324 5326 5327 5327 5329 5330 5332 5333 5334 5336 5338 5340 5342 5344 5346 5348 5350 5352 5355 5357 5359 5360 5361 5362 5364 5366 5368 5370 5373 5375 5375 5376
5305 5306 5308 5309 5308 5308 5309 5310 5311 5312 5313 5313 5315 5316 5317 5319 5320 5321 5323 5324 5325 5328 5330 5332 5335 5338 5339 5341 5343 5345 5348 5350 5352 5353 5354 5355 5356 5358 5359 5361 5363 5365 5367 5369
5295 5297 5298 5299 5299 5299 5299 5300 5301 5302 5303 5304 5306 5307 5308 5309 5311 5312 5314 5316 5318 5321 5323 5326 5329 5331 5333 5335 5337 5340 5342 5344 5345 5347 5348 5349 5350 5351 5352 5354 5355 5357 5359 5361
5287 5289 5289 5289 5290 5290 5289 5290 5291 5292 5294 5296 5297 5298 5300 5301 5303 5306 5308 5309 5311 5314 5317 5320 5323 5325 5328 5330 5333 5335 5337 5338 5339 5341 5342 5343 5343 5344 5345 5346 5347 5349 5351 5352
5274 5276 5277 5278 5280 5280 5281 5282 5283 5284 5286 5287 5288 5290 5292 5294 5296 5298 5300 5302 5305 5309 5312 5314 5317 5320 5322 5325 5327 5329 5331 5332 5333 5334 5335 5335 5336 5337 5338 5339 5341 5342 5344 5345
5266 5268 5269 5269 5270 5270 5271 5272 5274 5275 5277 5278 5280 5282 5284 5286 5288 5291 5293 5296 5300 5304 5307 5309 5312 5315 5318 5320 5321 5323 5325 5326 5327 5327 5328 5329 5330 5331 5332 5334 5335 5336 5337 5338
5258 5259 5260 5260 5260 5261 5262 5263 5264 5266 5268 5270 5272 5274 5277 5279 5281 5283 5287 5290 5293 5296 5300 5303 5307 5310 5312 5314 5316 5318 5319 5320 5320 5321 5322 5323 5324 5325 5326 5327 5329 5330 5331 5332
5250 5251 5251 5251 5252 5252 5253 5254 5256 5258 5260 5262 5265 5267 5269 5271 5274 5277 5281 5286 5289 5291 5294 5298 5302 5304 5306 5308 5310 5312 5313 5313 5314 5315 5316 5318 5318 5320 5321 5322 5323 5324 5326 5327
5242 5242 5243 5243 5244 5245 5246 5247 5249 5250 5252 5255 5257 5259 5262 5265 5268 5272 5274 5278 5282 5285 5289 5293 5296 5298 5300 5302 5304 5305 5307 5307 5309 5310 5311 5312 5313 5314 5315 5316 5318 5319 5321 5323
5234 5234 5235 5236 5236 5237 5239 5240 5242 5244 5246 5248 5250 5253 5256 5259 5263 5267 5271 5273 5276 5280 5283 5286 5289 5292 5295 5296 5298 5300 5301 5302 5303 5305 5305 5306 5307 5308 5309 5311 5312 5314 5316 5318
5227 5227 5228 5228 5230 5232 5233 5236 5237 5239 5240 5242 5245 5247 5250 5254 5258 5260 5263 5267 5270 5274 5277 5280 5283 5286 5288 5290 5292 5294 5296 5297 5298 5299 5300 5301 5302 5303 5304 5306 5308 5310 5312 5314
5220 5220 5222 5223 5226 5228 5229 5230 5232 5234 5237 5239 5241 5244 5246 5249 5252 5255 5258 5261 5265 5268 5271 5274 5277 5280 5282 5284 5286 5288 5290 5291 5293 5294 5295 5296 5298 5299 5301 5302 5304 5306 5308 5311
5215 5217 5218 5218 5220 5222 5225 5227 5229 5231 5233 5236 5238 5241 5243 5245 5248 5251 5254 5257 5260 5263 5266 5269 5271 5274 5277 5279 5281 5282 5284 5285 5287 5288 5290 5291 5293 5295 5297 5299 5301 5303 5305 5308
5212 5213 5214 5217 5218 5220 5221 5223 5225 5227 5229 5232 5234 5237 5240 5243 5246 5249 5251 5254 5257 5260 5262 5265 5267 5270 5272 5274 5276 5277 5279 5280 5282 5283 5285 5287 5289 5291 5293 5295 5298 5300 5303 5305